GFSCGP_prec_precacc_267.txt.gz
Total_Precipitation_Accumulation
3.54 2.47 1.00 0.73 0.74 0.49 0.55 0.44 0.65 0.56 0.55 0.64 0.95 0.67 0.24 0.16 0.20 0.18 0.07 0.06 0.23 0.51 1.01 1.24 0.89 0.81 0.91 0.85 0.88 0.71 0.61 0.72 0.95 1.11 0.99 0.99 1.26 1.72 1.88 1.43 1.19 1.13 1.06 1.07
2.64 1.35 0.41 0.67 0.92 0.49 0.43 0.40 0.76 0.87 0.71 0.75 0.65 0.86 0.43 0.18 0.16 0.15 0.17 0.13 0.22 0.47 0.89 1.29 1.70 0.90 0.88 1.50 1.77 1.37 1.11 1.01 0.94 1.07 1.00 0.90 1.00 1.20 1.63 1.90 1.50 1.43 1.38 1.29
1.55 0.74 0.58 0.81 1.40 0.68 0.36 0.19 0.45 1.27 0.95 0.66 0.52 0.60 0.70 0.27 0.15 0.14 0.18 0.23 0.35 0.56 0.60 1.05 1.84 1.39 1.25 1.72 1.87 1.62 1.51 1.54 1.46 1.48 1.88 1.58 1.60 1.48 1.70 2.11 1.91 1.78 1.54 1.46
1.89 0.66 0.56 0.88 1.57 0.88 0.65 0.15 0.48 0.87 0.86 0.71 0.40 0.60 0.44 0.32 0.22 0.16 0.25 0.28 0.31 0.43 0.38 0.60 0.95 1.32 1.45 1.02 1.03 1.53 2.55 2.98 2.12 1.91 2.77 3.41 3.11 2.94 2.71 2.93 2.66 2.11 1.84 1.72
1.69 0.91 0.76 0.94 0.95 0.75 0.67 0.33 0.80 0.94 0.75 0.79 0.42 0.78 0.23 0.27 0.24 0.29 0.28 0.17 0.16 0.17 0.34 0.35 0.56 0.83 0.79 0.73 0.77 0.94 1.48 2.35 2.43 2.47 2.68 3.18 3.05 2.43 2.15 2.20 2.78 2.81 2.55 2.09
0.92 0.93 0.93 0.78 0.52 0.27 0.24 0.29 0.76 1.25 1.07 1.13 0.31 0.38 0.23 0.23 0.20 0.40 0.32 0.15 0.27 0.23 0.16 0.32 0.31 0.46 0.55 0.66 0.78 0.69 1.00 1.46 2.17 2.43 2.43 2.64 2.88 3.15 2.70 2.19 2.40 2.27 1.89 1.85
1.50 1.24 0.90 0.77 0.36 0.24 0.29 0.74 1.61 1.72 1.56 0.79 0.23 0.16 0.15 0.11 0.10 0.26 0.38 0.25 0.36 0.49 0.30 0.37 0.59 0.56 0.66 0.78 0.60 0.61 0.89 1.03 1.50 1.69 2.08 2.20 1.78 2.03 2.12 1.97 1.93 2.04 2.00 1.76
1.60 2.00 1.15 0.63 0.28 0.34 0.35 0.69 1.41 1.50 0.59 0.50 0.20 0.26 0.19 0.21 0.19 0.19 0.35 0.47 0.72 0.98 0.55 0.51 0.81 1.02 1.05 0.88 0.85 0.56 0.82 0.91 0.90 0.91 0.97 1.35 1.58 1.94 1.87 1.68 1.58 1.55 1.45 1.56
0.68 1.18 0.58 0.28 0.08 0.16 0.34 0.54 0.47 0.82 0.32 0.50 0.38 0.31 0.39 0.41 0.39 0.28 0.38 0.71 0.96 1.05 0.91 0.79 0.86 1.20 1.12 0.89 0.99 0.92 0.88 0.98 0.81 0.84 0.54 0.48 0.57 0.70 0.85 0.90 0.91 1.02 1.29 1.22
0.17 0.62 0.30 0.16 0.13 0.07 0.08 0.15 0.45 0.76 0.92 0.60 0.31 0.28 0.69 0.68 0.62 0.63 0.67 0.88 1.00 0.91 1.11 0.97 0.90 0.92 0.86 0.72 0.88 0.94 0.81 0.61 0.57 0.66 0.59 0.25 0.28 0.32 0.39 0.31 0.28 0.30 0.45 0.61
0.01 0.21 0.30 0.23 0.26 0.10 0.04 0.15 0.25 0.50 0.69 1.07 0.40 0.25 0.40 0.51 0.55 0.71 0.59 0.76 0.80 0.88 0.84 0.76 0.69 0.63 0.58 0.42 0.60 0.85 0.73 0.61 0.51 0.56 0.72 0.45 0.34 0.32 0.34 0.28 0.13 0.14 0.13 0.16
0.00 0.06 0.12 0.14 0.03 0.01 0.02 0.01 0.08 0.61 0.47 0.62 0.54 0.27 0.05 0.17 0.41 0.35 0.41 0.45 0.43 0.51 0.56 0.54 0.56 0.53 0.34 0.47 0.71 1.23 1.11 0.76 0.50 0.51 0.58 0.73 0.57 0.47 0.41 0.39 0.21 0.17 0.19 0.20
0.00 0.11 0.20 0.21 0.16 0.06 0.06 0.02 0.11 0.27 0.59 0.42 0.54 0.12 0.01 0.13 0.25 0.16 0.26 0.41 0.22 0.14 0.23 0.31 0.45 0.76 0.26 0.49 0.80 1.23 1.16 0.77 0.53 0.58 0.54 0.71 0.94 0.77 0.66 0.48 0.39 0.27 0.30 0.39
0.05 0.32 0.19 0.14 0.11 0.20 0.18 0.03 0.10 0.44 0.69 0.17 0.09 0.01 0.00 0.09 0.10 0.10 0.30 0.47 0.16 0.16 0.24 0.27 0.17 0.17 0.29 0.79 0.95 0.96 1.27 1.09 0.86 0.75 0.70 0.65 0.98 0.95 0.86 0.69 0.66 0.55 0.48 0.47
0.32 0.77 0.30 0.08 0.06 0.22 0.20 0.08 0.08 0.36 0.21 0.38 0.10 0.01 0.01 0.03 0.17 0.32 0.67 0.63 0.19 0.19 0.15 0.14 0.14 0.22 0.31 1.05 0.98 1.23 1.26 1.55 1.35 1.03 0.97 0.89 0.68 0.92 0.82 0.66 0.86 0.78 0.61 0.67
0.70 1.14 0.66 0.44 0.11 0.15 0.25 0.06 0.07 0.09 0.04 0.07 0.05 0.05 0.03 0.03 0.32 0.25 0.68 0.75 0.34 0.22 0.13 0.10 0.17 0.24 0.33 0.75 0.96 0.98 1.47 1.91 1.70 1.44 1.16 1.04 0.67 0.77 0.92 0.87 0.87 0.77 0.71 0.85
1.15 1.33 1.44 0.96 0.25 0.45 0.51 0.09 0.03 0.02 0.04 0.10 0.33 0.42 0.18 0.21 0.63 0.35 0.50 0.56 0.39 0.27 0.14 0.13 0.21 0.60 0.36 0.58 0.91 1.14 1.44 1.56 1.74 1.99 1.60 1.14 0.69 0.70 0.67 0.56 0.59 0.53 0.59 0.74
0.74 0.93 1.72 1.21 0.62 1.07 0.24 0.02 0.00 0.02 0.04 0.04 0.09 0.05 0.05 0.24 0.84 0.33 0.28 0.73 0.53 0.19 0.15 0.40 0.59 0.60 0.40 0.76 1.31 1.19 1.52 1.20 1.44 2.01 1.75 1.44 1.09 0.94 0.86 0.71 0.68 0.52 0.54 0.63
0.24 0.96 1.95 1.50 0.98 0.41 0.04 0.00 0.00 0.04 0.05 0.03 0.03 0.01 0.03 0.07 0.21 0.26 0.14 0.79 0.68 0.37 0.49 0.49 0.64 0.75 0.59 0.66 0.93 0.97 1.12 1.28 1.62 2.03 2.01 1.71 1.32 1.23 1.34 1.43 1.23 1.03 1.02 1.02
0.13 0.63 2.08 1.98 1.52 0.52 0.07 0.01 0.01 0.05 0.10 0.01 0.04 0.03 0.01 0.02 0.05 0.10 0.33 0.44 0.40 0.49 0.51 0.70 0.91 0.92 0.71 0.68 0.87 1.36 1.89 1.73 1.67 1.57 1.61 1.57 1.47 1.23 1.22 1.14 1.27 1.21 1.08 1.05
0.19 0.55 1.42 1.25 1.85 0.90 0.15 0.03 0.03 0.21 0.16 0.01 0.02 0.05 0.02 0.03 0.02 0.04 0.27 0.32 0.25 0.32 0.43 0.47 0.66 0.76 0.72 0.82 1.34 1.65 1.77 1.77 1.73 1.72 1.55 1.40 1.21 1.29 1.13 1.06 0.91 0.92 0.78 0.62
0.11 0.22 0.33 0.52 1.07 0.61 0.10 0.04 0.10 0.13 0.04 0.01 0.00 0.04 0.04 0.00 0.00 0.01 0.13 0.27 0.22 0.24 0.30 0.20 0.47 0.98 1.20 1.10 1.17 1.10 1.09 1.08 0.91 0.95 0.83 0.87 0.75 0.71 0.73 0.52 0.55 0.51 0.40 0.31
0.08 0.10 0.13 0.16 0.15 0.06 0.05 0.05 0.02 0.01 0.02 0.00 0.01 0.01 0.02 0.02 0.06 0.06 0.05 0.06 0.05 0.10 0.22 0.10 0.17 0.22 0.36 0.43 0.41 0.49 0.54 0.53 0.53 0.51 0.47 0.51 0.46 0.34 0.29 0.23 0.21 0.22 0.17 0.12
0.06 0.03 0.14 0.17 0.07 0.01 0.01 0.01 0.01 0.01 0.03 0.02 0.06 0.06 0.02 0.01 0.00 0.01 0.02 0.03 0.05 0.06 0.06 0.08 0.11 0.16 0.24 0.27 0.30 0.27 0.16 0.22 0.33 0.47 0.47 0.47 0.31 0.28 0.19 0.14 0.13 0.13 0.14 0.13
0.06 0.02 0.03 0.06 0.01 0.00 0.00 0.00 0.00 0.00 0.00 0.00 0.01 0.01 0.00 0.00 0.01 0.01 0.01 0.02 0.06 0.09 0.08 0.12 0.19 0.22 0.22 0.19 0.24 0.25 0.19 0.18 0.23 0.26 0.26 0.22 0.12 0.14 0.12 0.11 0.14 0.14 0.12 0.13
0.01 0.01 0.01 0.04 0.00 0.01 0.00 0.00 0.00 0.00 0.00 0.00 0.00 0.00 0.00 0.00 0.00 0.00 0.00 0.01 0.04 0.14 0.08 0.06 0.13 0.23 0.34 0.36 0.33 0.28 0.25 0.21 0.19 0.16 0.13 0.16 0.09 0.08 0.08 0.09 0.14 0.22 0.15 0.12

GFSCGP_prec_precacc_270.txt.gz
Total_Precipitation_Accumulation
3.54 2.47 1.00 0.73 0.74 0.49 0.55 0.44 0.65 0.56 0.55 0.64 0.95 0.67 0.24 0.16 0.20 0.18 0.07 0.06 0.23 0.51 1.01 1.24 0.89 0.81 0.91 0.85 0.88 0.71 0.61 0.72 0.95 1.11 0.99 0.99 1.26 1.72 1.88 1.43 1.19 1.13 1.06 1.07
2.64 1.35 0.41 0.67 0.92 0.49 0.43 0.40 0.76 0.87 0.71 0.75 0.65 0.86 0.43 0.18 0.16 0.15 0.17 0.13 0.22 0.47 0.89 1.29 1.70 0.90 0.88 1.50 1.77 1.37 1.11 1.01 0.94 1.07 1.00 0.90 1.00 1.20 1.63 1.90 1.50 1.43 1.38 1.29
1.55 0.74 0.58 0.81 1.40 0.68 0.36 0.19 0.45 1.27 0.95 0.66 0.52 0.60 0.70 0.27 0.15 0.14 0.18 0.23 0.35 0.56 0.60 1.05 1.84 1.39 1.25 1.72 1.87 1.62 1.51 1.54 1.46 1.48 1.88 1.58 1.60 1.48 1.70 2.11 1.91 1.78 1.54 1.46
1.89 0.66 0.56 0.88 1.57 0.88 0.65 0.15 0.48 0.87 0.86 0.71 0.40 0.60 0.44 0.32 0.22 0.16 0.25 0.28 0.31 0.43 0.38 0.60 0.95 1.32 1.45 1.02 1.03 1.53 2.55 2.98 2.12 1.91 2.77 3.41 3.11 2.94 2.71 2.93 2.66 2.11 1.84 1.72
1.69 0.91 0.76 0.94 0.95 0.75 0.67 0.33 0.80 0.94 0.75 0.79 0.42 0.78 0.23 0.27 0.24 0.29 0.28 0.17 0.16 0.17 0.34 0.35 0.56 0.83 0.79 0.73 0.77 0.94 1.48 2.35 2.43 2.47 2.68 3.18 3.05 2.43 2.15 2.20 2.78 2.81 2.55 2.09
0.92 0.93 0.93 0.78 0.52 0.27 0.24 0.29 0.76 1.25 1.07 1.13 0.31 0.38 0.23 0.23 0.20 0.40 0.32 0.15 0.27 0.23 0.16 0.32 0.31 0.46 0.55 0.66 0.78 0.69 1.00 1.46 2.17 2.43 2.43 2.64 2.88 3.15 2.70 2.19 2.40 2.27 1.89 1.85
1.50 1.24 0.90 0.77 0.36 0.24 0.29 0.74 1.61 1.72 1.56 0.79 0.23 0.16 0.15 0.11 0.10 0.26 0.38 0.25 0.36 0.49 0.30 0.37 0.59 0.56 0.66 0.78 0.60 0.61 0.89 1.03 1.50 1.69 2.08 2.20 1.78 2.03 2.12 1.97 1.93 2.04 2.00 1.76
1.60 2.00 1.15 0.63 0.28 0.34 0.35 0.69 1.41 1.50 0.59 0.50 0.20 0.26 0.19 0.21 0.19 0.19 0.35 0.47 0.72 0.98 0.55 0.51 0.81 1.02 1.05 0.88 0.85 0.56 0.82 0.91 0.90 0.91 0.97 1.35 1.58 1.94 1.87 1.68 1.58 1.55 1.45 1.56
0.68 1.18 0.58 0.28 0.08 0.16 0.34 0.54 0.47 0.82 0.32 0.50 0.38 0.31 0.39 0.41 0.39 0.28 0.38 0.71 0.96 1.05 0.91 0.79 0.86 1.20 1.12 0.89 0.99 0.92 0.88 0.98 0.81 0.84 0.54 0.48 0.57 0.70 0.85 0.90 0.91 1.02 1.29 1.22
0.17 0.62 0.30 0.16 0.13 0.07 0.08 0.15 0.45 0.76 0.92 0.60 0.31 0.28 0.69 0.68 0.62 0.63 0.67 0.88 1.00 0.91 1.11 0.97 0.90 0.92 0.86 0.72 0.88 0.94 0.81 0.61 0.57 0.66 0.59 0.25 0.28 0.32 0.39 0.31 0.28 0.30 0.45 0.61
0.01 0.21 0.30 0.23 0.26 0.10 0.04 0.15 0.25 0.50 0.69 1.07 0.40 0.25 0.40 0.51 0.55 0.71 0.59 0.76 0.80 0.88 0.84 0.76 0.69 0.63 0.58 0.42 0.60 0.85 0.73 0.61 0.51 0.56 0.72 0.45 0.34 0.32 0.34 0.28 0.13 0.14 0.13 0.16
0.00 0.06 0.12 0.14 0.03 0.01 0.02 0.01 0.08 0.61 0.47 0.62 0.54 0.27 0.05 0.17 0.41 0.35 0.41 0.45 0.43 0.51 0.56 0.54 0.56 0.53 0.34 0.47 0.71 1.23 1.11 0.76 0.50 0.51 0.58 0.73 0.57 0.47 0.41 0.39 0.21 0.17 0.19 0.20
0.00 0.11 0.20 0.21 0.16 0.06 0.06 0.02 0.11 0.27 0.59 0.42 0.54 0.12 0.01 0.13 0.25 0.16 0.26 0.41 0.22 0.14 0.23 0.31 0.45 0.76 0.26 0.49 0.80 1.23 1.16 0.77 0.53 0.58 0.54 0.71 0.94 0.77 0.66 0.48 0.39 0.27 0.30 0.39
0.05 0.32 0.19 0.14 0.11 0.20 0.18 0.03 0.10 0.44 0.69 0.17 0.09 0.01 0.00 0.09 0.10 0.10 0.30 0.47 0.16 0.16 0.24 0.27 0.17 0.17 0.29 0.79 0.95 0.96 1.27 1.09 0.86 0.75 0.70 0.65 0.98 0.95 0.86 0.69 0.66 0.55 0.48 0.47
0.32 0.77 0.30 0.08 0.06 0.22 0.20 0.08 0.08 0.37 0.21 0.38 0.10 0.01 0.01 0.03 0.17 0.32 0.67 0.63 0.19 0.19 0.15 0.14 0.14 0.22 0.31 1.05 0.98 1.23 1.26 1.55 1.35 1.03 0.97 0.89 0.68 0.92 0.82 0.67 0.87 0.78 0.61 0.67
0.70 1.14 0.66 0.44 0.11 0.15 0.25 0.06 0.07 0.10 0.04 0.08 0.05 0.06 0.03 0.03 0.32 0.25 0.68 0.75 0.34 0.22 0.13 0.10 0.17 0.24 0.33 0.75 0.96 0.98 1.47 1.91 1.70 1.44 1.16 1.04 0.67 0.78 0.92 0.87 0.87 0.77 0.71 0.85
1.17 1.36 1.48 0.98 0.26 0.46 0.51 0.09 0.03 0.03 0.05 0.11 0.35 0.47 0.19 0.21 0.63 0.35 0.50 0.56 0.39 0.27 0.14 0.13 0.21 0.60 0.36 0.58 0.91 1.14 1.44 1.56 1.74 1.99 1.60 1.15 0.70 0.71 0.67 0.57 0.59 0.53 0.59 0.74
0.77 0.97 1.78 1.25 0.64 1.09 0.25 0.02 0.00 0.03 0.07 0.07 0.11 0.06 0.05 0.24 0.84 0.33 0.28 0.73 0.53 0.19 0.15 0.40 0.59 0.60 0.40 0.76 1.31 1.19 1.52 1.20 1.45 2.02 1.77 1.46 1.11 0.96 0.87 0.71 0.68 0.52 0.54 0.63
0.24 1.00 2.00 1.54 1.01 0.43 0.08 0.02 0.01 0.06 0.10 0.05 0.04 0.01 0.03 0.07 0.21 0.26 0.14 0.79 0.68 0.37 0.49 0.49 0.64 0.75 0.59 0.66 0.94 0.98 1.14 1.32 1.68 2.13 2.11 1.79 1.36 1.24 1.34 1.43 1.23 1.03 1.02 1.02
0.14 0.65 2.15 2.03 1.57 0.54 0.08 0.02 0.01 0.06 0.13 0.02 0.04 0.03 0.01 0.02 0.05 0.10 0.33 0.44 0.40 0.49 0.51 0.70 0.91 0.92 0.71 0.68 0.87 1.36 1.90 1.74 1.70 1.61 1.67 1.61 1.48 1.23 1.22 1.14 1.27 1.21 1.08 1.05
0.21 0.57 1.44 1.27 1.91 0.94 0.20 0.03 0.03 0.21 0.17 0.01 0.02 0.05 0.02 0.03 0.02 0.04 0.27 0.32 0.25 0.32 0.43 0.47 0.66 0.76 0.72 0.82 1.34 1.65 1.77 1.77 1.73 1.72 1.56 1.40 1.22 1.29 1.13 1.06 0.91 0.92 0.78 0.62
0.11 0.23 0.33 0.52 1.08 0.62 0.11 0.04 0.10 0.13 0.04 0.01 0.00 0.04 0.04 0.00 0.00 0.01 0.13 0.27 0.22 0.24 0.30 0.20 0.47 0.98 1.20 1.10 1.17 1.10 1.09 1.08 0.91 0.95 0.83 0.88 0.75 0.71 0.73 0.52 0.55 0.51 0.40 0.31
0.08 0.10 0.13 0.16 0.15 0.06 0.05 0.05 0.02 0.01 0.02 0.00 0.01 0.01 0.02 0.02 0.06 0.06 0.05 0.06 0.05 0.10 0.22 0.10 0.17 0.22 0.36 0.43 0.42 0.50 0.55 0.53 0.53 0.51 0.47 0.51 0.46 0.34 0.29 0.23 0.21 0.22 0.17 0.13
0.06 0.03 0.14 0.17 0.07 0.01 0.01 0.01 0.01 0.01 0.03 0.02 0.06 0.06 0.02 0.01 0.00 0.01 0.02 0.03 0.05 0.06 0.06 0.08 0.11 0.16 0.25 0.29 0.33 0.31 0.21 0.24 0.33 0.47 0.47 0.47 0.31 0.28 0.19 0.14 0.13 0.13 0.14 0.13
0.06 0.02 0.03 0.06 0.01 0.00 0.00 0.00 0.00 0.00 0.00 0.00 0.01 0.01 0.00 0.00 0.01 0.01 0.01 0.02 0.06 0.09 0.08 0.12 0.19 0.22 0.22 0.22 0.32 0.36 0.29 0.26 0.27 0.27 0.26 0.22 0.12 0.14 0.12 0.11 0.14 0.14 0.12 0.13
0.01 0.01 0.01 0.04 0.00 0.01 0.00 0.00 0.00 0.00 0.00 0.00 0.00 0.00 0.00 0.00 0.00 0.00 0.00 0.01 0.04 0.14 0.08 0.06 0.13 0.23 0.34 0.41 0.44 0.42 0.36 0.29 0.23 0.16 0.13 0.16 0.09 0.08 0.08 0.09 0.14 0.22 0.16 0.12

GFSCGP_prec_precacc_276.txt.gz
Total_Precipitation_Accumulation
3.54 2.47 1.00 0.73 0.74 0.49 0.55 0.44 0.65 0.56 0.55 0.64 0.95 0.67 0.24 0.16 0.20 0.18 0.07 0.06 0.23 0.51 1.01 1.24 0.89 0.81 0.91 0.85 0.88 0.71 0.61 0.72 0.95 1.11 0.99 0.99 1.26 1.72 1.88 1.43 1.19 1.13 1.06 1.07
2.64 1.35 0.41 0.67 0.92 0.49 0.43 0.40 0.76 0.87 0.71 0.75 0.65 0.86 0.43 0.18 0.16 0.15 0.17 0.13 0.22 0.47 0.89 1.29 1.70 0.90 0.88 1.50 1.77 1.37 1.11 1.01 0.94 1.07 1.00 0.90 1.00 1.20 1.63 1.90 1.50 1.43 1.38 1.29
1.55 0.74 0.58 0.81 1.40 0.68 0.36 0.19 0.45 1.27 0.95 0.66 0.52 0.60 0.70 0.27 0.15 0.14 0.18 0.23 0.35 0.56 0.60 1.05 1.84 1.39 1.25 1.72 1.87 1.62 1.51 1.54 1.46 1.48 1.88 1.58 1.60 1.48 1.70 2.11 1.91 1.78 1.54 1.46
1.89 0.66 0.56 0.88 1.57 0.88 0.65 0.15 0.48 0.87 0.86 0.71 0.40 0.60 0.44 0.32 0.22 0.16 0.25 0.28 0.31 0.43 0.38 0.60 0.95 1.32 1.45 1.02 1.03 1.53 2.55 2.98 2.12 1.91 2.77 3.41 3.11 2.94 2.71 2.93 2.66 2.11 1.84 1.72
1.69 0.91 0.76 0.94 0.95 0.75 0.67 0.33 0.80 0.94 0.75 0.79 0.42 0.78 0.23 0.27 0.24 0.29 0.28 0.17 0.16 0.17 0.34 0.35 0.56 0.83 0.79 0.73 0.77 0.94 1.48 2.35 2.43 2.47 2.68 3.18 3.05 2.43 2.15 2.20 2.78 2.81 2.55 2.09
0.92 0.93 0.93 0.78 0.52 0.27 0.24 0.29 0.76 1.25 1.07 1.13 0.31 0.38 0.23 0.23 0.20 0.40 0.32 0.15 0.27 0.23 0.16 0.32 0.31 0.46 0.55 0.66 0.78 0.69 1.00 1.46 2.17 2.43 2.43 2.64 2.88 3.15 2.70 2.19 2.40 2.27 1.89 1.85
1.50 1.24 0.90 0.77 0.36 0.24 0.29 0.74 1.61 1.72 1.56 0.79 0.23 0.16 0.15 0.11 0.10 0.26 0.38 0.25 0.36 0.49 0.30 0.37 0.59 0.56 0.66 0.78 0.60 0.61 0.89 1.03 1.50 1.69 2.08 2.20 1.78 2.03 2.12 1.97 1.93 2.04 2.00 1.76
1.60 2.00 1.15 0.63 0.28 0.34 0.35 0.69 1.41 1.50 0.59 0.50 0.20 0.26 0.19 0.21 0.19 0.19 0.35 0.47 0.72 0.98 0.55 0.51 0.81 1.02 1.05 0.88 0.85 0.56 0.82 0.91 0.90 0.91 0.97 1.35 1.58 1.94 1.87 1.68 1.58 1.55 1.45 1.56
0.68 1.18 0.58 0.28 0.08 0.16 0.34 0.54 0.47 0.82 0.32 0.50 0.38 0.31 0.39 0.41 0.39 0.28 0.38 0.71 0.96 1.05 0.91 0.79 0.86 1.20 1.12 0.89 0.99 0.92 0.88 0.98 0.81 0.84 0.54 0.48 0.57 0.70 0.85 0.90 0.91 1.02 1.29 1.22
0.17 0.62 0.30 0.16 0.13 0.07 0.08 0.15 0.45 0.76 0.92 0.60 0.31 0.28 0.69 0.68 0.62 0.63 0.67 0.88 1.00 0.91 1.11 0.97 0.90 0.92 0.86 0.72 0.88 0.94 0.81 0.61 0.57 0.66 0.59 0.25 0.28 0.32 0.39 0.31 0.28 0.30 0.45 0.61
0.01 0.21 0.30 0.23 0.26 0.10 0.04 0.15 0.25 0.50 0.69 1.07 0.40 0.25 0.40 0.51 0.55 0.71 0.59 0.76 0.80 0.88 0.84 0.76 0.69 0.63 0.58 0.42 0.60 0.85 0.73 0.61 0.51 0.56 0.72 0.45 0.34 0.32 0.34 0.28 0.13 0.14 0.13 0.16
0.00 0.06 0.12 0.14 0.03 0.01 0.02 0.01 0.08 0.61 0.47 0.62 0.54 0.27 0.05 0.17 0.41 0.35 0.41 0.45 0.43 0.51 0.56 0.54 0.56 0.53 0.34 0.47 0.71 1.23 1.11 0.76 0.50 0.51 0.58 0.73 0.57 0.47 0.41 0.39 0.21 0.17 0.19 0.20
0.00 0.11 0.20 0.21 0.16 0.06 0.06 0.02 0.11 0.27 0.59 0.42 0.54 0.12 0.01 0.13 0.25 0.16 0.26 0.41 0.22 0.14 0.23 0.31 0.45 0.76 0.26 0.49 0.80 1.23 1.16 0.77 0.53 0.58 0.54 0.71 0.94 0.77 0.66 0.48 0.39 0.27 0.30 0.39
0.05 0.32 0.19 0.14 0.11 0.20 0.18 0.03 0.10 0.44 0.69 0.17 0.09 0.01 0.00 0.09 0.10 0.10 0.30 0.47 0.16 0.16 0.24 0.27 0.17 0.17 0.29 0.79 0.95 0.96 1.27 1.09 0.86 0.75 0.70 0.65 0.98 0.95 0.86 0.69 0.66 0.55 0.48 0.48
0.32 0.77 0.30 0.08 0.06 0.22 0.20 0.08 0.08 0.37 0.21 0.38 0.10 0.01 0.01 0.03 0.17 0.32 0.67 0.63 0.19 0.19 0.15 0.14 0.14 0.22 0.31 1.05 0.98 1.23 1.26 1.55 1.35 1.03 0.97 0.89 0.68 0.92 0.82 0.67 0.87 0.78 0.62 0.68
0.70 1.14 0.66 0.44 0.11 0.15 0.25 0.06 0.07 0.10 0.04 0.08 0.05 0.06 0.03 0.03 0.32 0.25 0.68 0.75 0.34 0.22 0.13 0.10 0.17 0.24 0.33 0.75 0.96 0.98 1.47 1.91 1.70 1.44 1.16 1.04 0.67 0.78 0.92 0.87 0.87 0.78 0.72 0.86
1.18 1.36 1.49 0.99 0.26 0.47 0.53 0.09 0.03 0.03 0.06 0.12 0.35 0.48 0.19 0.21 0.63 0.35 0.50 0.56 0.39 0.27 0.14 0.13 0.21 0.60 0.36 0.58 0.91 1.14 1.44 1.56 1.74 1.99 1.60 1.15 0.70 0.71 0.67 0.57 0.59 0.54 0.59 0.75
0.81 1.01 1.85 1.35 0.73 1.20 0.27 0.02 0.00 0.03 0.07 0.07 0.11 0.06 0.05 0.24 0.84 0.33 0.28 0.73 0.53 0.19 0.15 0.40 0.59 0.60 0.40 0.76 1.31 1.19 1.52 1.20 1.45 2.02 1.77 1.46 1.12 0.99 0.93 0.80 0.80 0.66 0.69 0.79
0.31 1.12 2.12 1.67 1.16 0.51 0.10 0.02 0.01 0.06 0.11 0.05 0.04 0.01 0.03 0.07 0.21 0.26 0.14 0.79 0.68 0.37 0.49 0.49 0.64 0.75 0.59 0.66 0.94 0.98 1.14 1.33 1.68 2.14 2.15 1.91 1.58 1.52 1.61 1.68 1.45 1.23 1.19 1.18
0.16 0.73 2.26 2.17 1.70 0.63 0.09 0.02 0.01 0.06 0.16 0.02 0.04 0.03 0.01 0.02 0.05 0.10 0.33 0.44 0.40 0.49 0.51 0.70 0.91 0.92 0.71 0.68 0.87 1.36 1.90 1.74 1.70 1.62 1.68 1.66 1.56 1.31 1.28 1.20 1.33 1.25 1.11 1.07
0.24 0.62 1.50 1.35 2.05 1.02 0.21 0.03 0.03 0.22 0.18 0.01 0.02 0.05 0.02 0.03 0.02 0.04 0.27 0.32 0.25 0.32 0.43 0.47 0.66 0.76 0.72 0.82 1.34 1.65 1.77 1.77 1.73 1.73 1.57 1.42 1.25 1.34 1.19 1.10 0.94 0.94 0.79 0.63
0.12 0.24 0.35 0.55 1.14 0.63 0.11 0.04 0.10 0.13 0.04 0.01 0.00 0.04 0.04 0.00 0.00 0.01 0.13 0.27 0.22 0.24 0.30 0.20 0.47 0.98 1.20 1.10 1.17 1.10 1.09 1.08 0.91 0.96 0.85 0.91 0.81 0.79 0.83 0.57 0.56 0.52 0.41 0.31
0.08 0.10 0.13 0.16 0.15 0.06 0.05 0.05 0.02 0.01 0.02 0.00 0.01 0.01 0.02 0.02 0.06 0.06 0.05 0.06 0.05 0.10 0.22 0.10 0.17 0.22 0.36 0.43 0.42 0.50 0.55 0.54 0.56 0.56 0.53 0.60 0.57 0.48 0.43 0.36 0.28 0.24 0.19 0.14
0.06 0.03 0.14 0.17 0.07 0.01 0.01 0.01 0.01 0.01 0.03 0.02 0.06 0.06 0.02 0.01 0.00 0.01 0.02 0.03 0.05 0.06 0.06 0.08 0.11 0.16 0.25 0.29 0.33 0.31 0.21 0.27 0.39 0.55 0.56 0.59 0.48 0.49 0.42 0.36 0.29 0.18 0.18 0.15
0.06 0.02 0.03 0.06 0.01 0.00 0.00 0.00 0.00 0.00 0.00 0.00 0.01 0.01 0.00 0.00 0.01 0.01 0.01 0.02 0.06 0.09 0.08 0.12 0.19 0.22 0.22 0.22 0.32 0.36 0.30 0.30 0.37 0.41 0.41 0.39 0.29 0.34 0.37 0.42 0.34 0.26 0.16 0.16
0.01 0.01 0.01 0.04 0.00 0.01 0.00 0.00 0.00 0.00 0.00 0.00 0.00 0.00 0.00 0.00 0.00 0.00 0.00 0.01 0.04 0.14 0.08 0.06 0.13 0.23 0.34 0.41 0.44 0.43 0.39 0.37 0.35 0.32 0.28 0.34 0.28 0.26 0.25 0.23 0.30 0.33 0.20 0.14

GFSCGP_prec_precacc_282.txt.gz
Total_Precipitation_Accumulation
3.54 2.47 1.00 0.73 0.74 0.49 0.55 0.44 0.65 0.56 0.55 0.64 0.95 0.67 0.24 0.16 0.20 0.18 0.07 0.06 0.23 0.51 1.01 1.24 0.89 0.81 0.91 0.85 0.88 0.71 0.61 0.72 0.95 1.11 0.99 0.99 1.26 1.72 1.88 1.43 1.19 1.13 1.06 1.07
2.64 1.35 0.41 0.67 0.92 0.49 0.43 0.40 0.76 0.87 0.71 0.75 0.65 0.86 0.43 0.18 0.16 0.15 0.17 0.13 0.22 0.47 0.89 1.29 1.70 0.90 0.88 1.50 1.77 1.37 1.11 1.01 0.94 1.07 1.00 0.90 1.00 1.20 1.63 1.90 1.50 1.43 1.38 1.29
1.55 0.74 0.58 0.81 1.40 0.68 0.36 0.19 0.45 1.27 0.95 0.66 0.52 0.60 0.70 0.27 0.15 0.14 0.18 0.23 0.35 0.56 0.60 1.05 1.84 1.39 1.25 1.72 1.87 1.62 1.51 1.54 1.46 1.48 1.88 1.58 1.60 1.48 1.70 2.11 1.91 1.78 1.54 1.46
1.89 0.66 0.56 0.88 1.57 0.88 0.65 0.15 0.48 0.87 0.86 0.71 0.40 0.60 0.44 0.32 0.22 0.16 0.25 0.28 0.31 0.43 0.38 0.60 0.95 1.32 1.45 1.02 1.03 1.53 2.55 2.98 2.12 1.91 2.77 3.41 3.11 2.94 2.71 2.93 2.66 2.11 1.84 1.72
1.69 0.91 0.76 0.94 0.95 0.75 0.67 0.33 0.80 0.94 0.75 0.79 0.42 0.78 0.23 0.27 0.24 0.29 0.28 0.17 0.16 0.17 0.34 0.35 0.56 0.83 0.79 0.73 0.77 0.94 1.48 2.35 2.43 2.47 2.68 3.18 3.05 2.43 2.15 2.20 2.78 2.81 2.55 2.09
0.92 0.93 0.93 0.78 0.52 0.27 0.24 0.29 0.76 1.25 1.07 1.13 0.31 0.38 0.23 0.23 0.20 0.40 0.32 0.15 0.27 0.23 0.16 0.32 0.31 0.46 0.55 0.66 0.78 0.69 1.00 1.46 2.17 2.43 2.43 2.64 2.88 3.15 2.70 2.19 2.40 2.27 1.89 1.85
1.50 1.24 0.90 0.77 0.36 0.24 0.29 0.74 1.61 1.72 1.56 0.79 0.23 0.16 0.15 0.11 0.10 0.26 0.38 0.25 0.36 0.49 0.30 0.37 0.59 0.56 0.66 0.78 0.60 0.61 0.89 1.03 1.50 1.69 2.08 2.20 1.78 2.03 2.12 1.97 1.93 2.04 2.00 1.76
1.60 2.00 1.15 0.63 0.28 0.34 0.35 0.69 1.41 1.50 0.59 0.50 0.20 0.26 0.19 0.21 0.19 0.19 0.35 0.47 0.72 0.98 0.55 0.51 0.81 1.02 1.05 0.88 0.85 0.56 0.82 0.91 0.90 0.91 0.97 1.35 1.58 1.94 1.87 1.68 1.58 1.55 1.45 1.56
0.68 1.18 0.58 0.28 0.08 0.16 0.34 0.54 0.47 0.82 0.32 0.50 0.38 0.31 0.39 0.41 0.39 0.28 0.38 0.71 0.96 1.05 0.91 0.79 0.86 1.20 1.12 0.89 0.99 0.92 0.88 0.98 0.81 0.84 0.54 0.48 0.57 0.70 0.85 0.90 0.91 1.02 1.29 1.22
0.17 0.62 0.30 0.16 0.13 0.07 0.08 0.15 0.45 0.76 0.92 0.60 0.31 0.28 0.69 0.68 0.62 0.63 0.67 0.88 1.00 0.91 1.11 0.97 0.90 0.92 0.86 0.72 0.88 0.94 0.81 0.61 0.57 0.66 0.59 0.25 0.28 0.32 0.39 0.31 0.28 0.30 0.45 0.61
0.01 0.21 0.30 0.23 0.26 0.10 0.04 0.15 0.25 0.50 0.69 1.07 0.40 0.25 0.40 0.51 0.55 0.71 0.59 0.76 0.80 0.88 0.84 0.76 0.69 0.63 0.58 0.42 0.60 0.85 0.73 0.61 0.51 0.56 0.72 0.45 0.34 0.32 0.34 0.28 0.13 0.14 0.13 0.16
0.00 0.06 0.12 0.14 0.03 0.01 0.02 0.01 0.08 0.61 0.47 0.62 0.54 0.27 0.05 0.17 0.41 0.35 0.41 0.45 0.43 0.51 0.56 0.54 0.56 0.53 0.34 0.47 0.71 1.23 1.11 0.76 0.50 0.51 0.58 0.73 0.57 0.47 0.41 0.39 0.21 0.17 0.19 0.20
0.00 0.11 0.20 0.21 0.16 0.06 0.06 0.02 0.11 0.27 0.59 0.42 0.54 0.12 0.01 0.13 0.25 0.16 0.26 0.41 0.22 0.14 0.23 0.31 0.45 0.76 0.26 0.49 0.80 1.23 1.16 0.77 0.53 0.58 0.54 0.71 0.94 0.77 0.66 0.48 0.39 0.27 0.30 0.39
0.05 0.32 0.19 0.14 0.11 0.20 0.18 0.03 0.10 0.44 0.69 0.17 0.09 0.01 0.00 0.09 0.10 0.10 0.30 0.47 0.16 0.16 0.24 0.27 0.17 0.17 0.29 0.79 0.95 0.96 1.27 1.09 0.86 0.75 0.70 0.65 0.98 0.95 0.86 0.69 0.66 0.55 0.48 0.48
0.32 0.77 0.30 0.08 0.06 0.22 0.20 0.08 0.08 0.37 0.21 0.38 0.10 0.01 0.01 0.03 0.17 0.32 0.67 0.63 0.19 0.19 0.15 0.14 0.14 0.22 0.31 1.05 0.98 1.23 1.26 1.55 1.35 1.03 0.97 0.89 0.68 0.92 0.82 0.67 0.87 0.78 0.62 0.68
0.70 1.14 0.66 0.44 0.11 0.15 0.25 0.06 0.07 0.10 0.04 0.08 0.05 0.06 0.03 0.03 0.32 0.25 0.68 0.75 0.34 0.22 0.13 0.10 0.17 0.24 0.33 0.75 0.96 0.98 1.47 1.91 1.70 1.44 1.16 1.04 0.67 0.78 0.92 0.87 0.87 0.78 0.72 0.87
1.18 1.36 1.49 0.99 0.26 0.47 0.53 0.09 0.03 0.03 0.06 0.12 0.35 0.48 0.19 0.21 0.63 0.35 0.50 0.56 0.39 0.27 0.14 0.13 0.21 0.60 0.36 0.58 0.91 1.14 1.44 1.56 1.74 1.99 1.60 1.15 0.70 0.71 0.67 0.57 0.59 0.54 0.59 0.75
0.81 1.01 1.85 1.35 0.74 1.22 0.27 0.02 0.00 0.03 0.07 0.07 0.11 0.06 0.05 0.24 0.84 0.33 0.28 0.73 0.53 0.19 0.15 0.40 0.59 0.60 0.40 0.76 1.31 1.19 1.52 1.20 1.45 2.02 1.77 1.46 1.12 0.99 0.93 0.80 0.80 0.66 0.70 0.80
0.33 1.13 2.14 1.71 1.21 0.55 0.11 0.02 0.01 0.06 0.11 0.05 0.04 0.01 0.03 0.08 0.21 0.27 0.14 0.79 0.68 0.37 0.49 0.49 0.64 0.75 0.59 0.66 0.94 0.98 1.14 1.33 1.68 2.14 2.15 1.91 1.58 1.52 1.62 1.68 1.45 1.24 1.21 1.21
0.22 0.79 2.36 2.38 1.85 0.73 0.11 0.02 0.01 0.06 0.16 0.02 0.04 0.03 0.02 0.02 0.05 0.10 0.33 0.44 0.40 0.49 0.51 0.70 0.91 0.92 0.71 0.68 0.87 1.36 1.90 1.74 1.70 1.62 1.68 1.66 1.56 1.31 1.29 1.21 1.35 1.28 1.15 1.13
0.29 0.71 1.64 1.54 2.24 1.13 0.22 0.03 0.03 0.22 0.18 0.01 0.02 0.05 0.02 0.03 0.02 0.04 0.27 0.32 0.25 0.32 0.43 0.47 0.66 0.76 0.72 0.82 1.34 1.65 1.77 1.77 1.73 1.73 1.57 1.42 1.25 1.34 1.21 1.16 1.01 1.02 0.90 0.76
0.13 0.27 0.41 0.64 1.25 0.68 0.11 0.04 0.10 0.13 0.04 0.01 0.00 0.04 0.04 0.00 0.00 0.01 0.13 0.27 0.22 0.24 0.30 0.20 0.47 0.98 1.20 1.10 1.17 1.10 1.09 1.08 0.91 0.96 0.85 0.91 0.81 0.80 0.84 0.65 0.70 0.68 0.59 0.52
0.08 0.10 0.14 0.16 0.16 0.06 0.05 0.05 0.02 0.01 0.02 0.00 0.01 0.01 0.02 0.02 0.06 0.06 0.05 0.06 0.05 0.10 0.22 0.10 0.17 0.22 0.36 0.43 0.42 0.50 0.55 0.54 0.56 0.56 0.53 0.60 0.57 0.48 0.44 0.39 0.37 0.38 0.33 0.30
0.06 0.03 0.14 0.17 0.07 0.01 0.01 0.01 0.01 0.01 0.03 0.02 0.06 0.06 0.02 0.01 0.00 0.01 0.02 0.03 0.05 0.06 0.06 0.08 0.11 0.16 0.25 0.29 0.33 0.31 0.21 0.27 0.39 0.55 0.56 0.59 0.48 0.50 0.42 0.38 0.38 0.42 0.48 0.51
0.06 0.02 0.03 0.06 0.01 0.00 0.00 0.00 0.00 0.00 0.00 0.00 0.01 0.01 0.00 0.00 0.01 0.01 0.01 0.02 0.06 0.09 0.08 0.12 0.19 0.22 0.22 0.22 0.32 0.36 0.30 0.30 0.37 0.41 0.42 0.39 0.30 0.35 0.37 0.44 0.48 0.44 0.36 0.44
0.01 0.01 0.01 0.04 0.00 0.01 0.00 0.00 0.00 0.00 0.00 0.00 0.00 0.00 0.00 0.00 0.00 0.00 0.00 0.01 0.04 0.14 0.08 0.06 0.13 0.23 0.34 0.41 0.44 0.43 0.39 0.37 0.35 0.32 0.28 0.34 0.28 0.27 0.26 0.25 0.40 0.63 0.57 0.56

GFSCGP_prec_precacc_285.txt.gz
Total_Precipitation_Accumulation
3.54 2.47 1.00 0.73 0.74 0.49 0.55 0.44 0.65 0.56 0.55 0.64 0.95 0.67 0.24 0.16 0.20 0.18 0.07 0.06 0.23 0.51 1.01 1.24 0.89 0.81 0.91 0.85 0.88 0.71 0.61 0.72 0.95 1.11 0.99 0.99 1.26 1.72 1.88 1.43 1.19 1.13 1.06 1.07
2.64 1.35 0.41 0.67 0.92 0.49 0.43 0.40 0.76 0.87 0.71 0.75 0.65 0.86 0.43 0.18 0.16 0.15 0.17 0.13 0.22 0.47 0.89 1.29 1.70 0.90 0.88 1.50 1.77 1.37 1.11 1.01 0.94 1.07 1.00 0.90 1.00 1.20 1.63 1.90 1.50 1.43 1.38 1.29
1.55 0.74 0.58 0.81 1.40 0.68 0.36 0.19 0.45 1.27 0.95 0.66 0.52 0.60 0.70 0.27 0.15 0.14 0.18 0.23 0.35 0.56 0.60 1.05 1.84 1.39 1.25 1.72 1.87 1.62 1.51 1.54 1.46 1.48 1.88 1.58 1.60 1.48 1.70 2.11 1.91 1.78 1.54 1.46
1.89 0.66 0.56 0.88 1.57 0.88 0.65 0.15 0.48 0.87 0.86 0.71 0.40 0.60 0.44 0.32 0.22 0.16 0.25 0.28 0.31 0.43 0.38 0.60 0.95 1.32 1.45 1.02 1.03 1.53 2.55 2.98 2.12 1.91 2.77 3.41 3.11 2.94 2.71 2.93 2.66 2.11 1.84 1.72
1.69 0.91 0.76 0.94 0.95 0.75 0.67 0.33 0.80 0.94 0.75 0.79 0.42 0.78 0.23 0.27 0.24 0.29 0.28 0.17 0.16 0.17 0.34 0.35 0.56 0.83 0.79 0.73 0.77 0.94 1.48 2.35 2.43 2.47 2.68 3.18 3.05 2.43 2.15 2.20 2.78 2.81 2.55 2.09
0.92 0.93 0.93 0.78 0.52 0.27 0.24 0.29 0.76 1.25 1.07 1.13 0.31 0.38 0.23 0.23 0.20 0.40 0.32 0.15 0.27 0.23 0.16 0.32 0.31 0.46 0.55 0.66 0.78 0.69 1.00 1.46 2.17 2.43 2.43 2.64 2.88 3.15 2.70 2.19 2.40 2.27 1.89 1.85
1.50 1.24 0.90 0.77 0.36 0.24 0.29 0.74 1.61 1.72 1.56 0.79 0.23 0.16 0.15 0.11 0.10 0.26 0.38 0.25 0.36 0.49 0.30 0.37 0.59 0.56 0.66 0.78 0.60 0.61 0.89 1.03 1.50 1.69 2.08 2.20 1.79 2.04 2.12 1.97 1.93 2.04 2.00 1.76
1.60 2.00 1.15 0.63 0.28 0.34 0.35 0.69 1.41 1.50 0.59 0.50 0.20 0.26 0.19 0.21 0.19 0.19 0.35 0.47 0.72 0.98 0.55 0.51 0.81 1.02 1.05 0.88 0.85 0.56 0.82 0.91 0.90 0.91 0.97 1.35 1.58 1.95 1.87 1.68 1.58 1.55 1.45 1.56
0.68 1.18 0.58 0.28 0.08 0.16 0.34 0.54 0.47 0.82 0.32 0.50 0.38 0.31 0.39 0.41 0.39 0.28 0.38 0.71 0.96 1.05 0.91 0.79 0.86 1.20 1.12 0.89 0.99 0.92 0.88 0.98 0.81 0.84 0.54 0.48 0.57 0.70 0.85 0.90 0.91 1.02 1.29 1.22
0.17 0.62 0.30 0.16 0.13 0.07 0.08 0.15 0.45 0.76 0.92 0.60 0.31 0.28 0.69 0.68 0.62 0.63 0.67 0.88 1.00 0.91 1.11 0.97 0.90 0.92 0.86 0.72 0.88 0.94 0.81 0.61 0.57 0.66 0.59 0.25 0.28 0.32 0.39 0.31 0.28 0.30 0.45 0.61
0.01 0.21 0.30 0.23 0.26 0.10 0.04 0.15 0.25 0.50 0.69 1.07 0.40 0.25 0.40 0.51 0.55 0.71 0.59 0.76 0.80 0.88 0.84 0.76 0.69 0.63 0.58 0.42 0.60 0.85 0.73 0.61 0.51 0.56 0.72 0.45 0.34 0.32 0.34 0.28 0.13 0.14 0.13 0.16
0.00 0.06 0.12 0.14 0.03 0.01 0.02 0.01 0.08 0.61 0.47 0.62 0.54 0.27 0.05 0.17 0.41 0.35 0.41 0.45 0.43 0.51 0.56 0.54 0.56 0.53 0.34 0.47 0.71 1.23 1.11 0.76 0.50 0.51 0.58 0.73 0.57 0.47 0.41 0.39 0.21 0.17 0.19 0.20
0.00 0.11 0.20 0.21 0.16 0.06 0.06 0.02 0.11 0.27 0.59 0.42 0.54 0.12 0.01 0.13 0.25 0.16 0.26 0.41 0.22 0.14 0.23 0.31 0.45 0.76 0.26 0.49 0.80 1.23 1.16 0.77 0.53 0.58 0.54 0.71 0.94 0.77 0.66 0.48 0.39 0.27 0.30 0.39
0.05 0.32 0.19 0.14 0.11 0.20 0.18 0.03 0.10 0.44 0.69 0.17 0.09 0.01 0.00 0.09 0.10 0.10 0.30 0.47 0.16 0.16 0.24 0.27 0.17 0.17 0.29 0.79 0.95 0.96 1.27 1.09 0.86 0.75 0.70 0.65 0.98 0.95 0.86 0.69 0.66 0.55 0.48 0.48
0.32 0.77 0.30 0.08 0.06 0.22 0.20 0.08 0.08 0.37 0.21 0.38 0.10 0.01 0.01 0.03 0.17 0.32 0.67 0.63 0.19 0.19 0.15 0.14 0.14 0.22 0.31 1.05 0.98 1.23 1.26 1.55 1.35 1.03 0.97 0.89 0.68 0.92 0.82 0.67 0.87 0.78 0.62 0.68
0.70 1.14 0.66 0.44 0.11 0.15 0.25 0.06 0.07 0.10 0.04 0.08 0.05 0.06 0.03 0.03 0.32 0.25 0.68 0.75 0.34 0.22 0.13 0.10 0.17 0.24 0.33 0.75 0.96 0.98 1.47 1.91 1.70 1.44 1.16 1.04 0.67 0.78 0.92 0.87 0.87 0.78 0.72 0.87
1.18 1.36 1.49 0.99 0.26 0.47 0.53 0.09 0.03 0.03 0.06 0.12 0.35 0.48 0.19 0.21 0.63 0.35 0.50 0.56 0.39 0.27 0.14 0.13 0.21 0.60 0.36 0.58 0.91 1.14 1.44 1.56 1.74 1.99 1.60 1.15 0.70 0.71 0.67 0.57 0.59 0.54 0.59 0.75
0.81 1.01 1.85 1.35 0.74 1.22 0.27 0.02 0.00 0.03 0.07 0.07 0.11 0.06 0.05 0.24 0.84 0.33 0.28 0.73 0.53 0.19 0.15 0.40 0.59 0.60 0.40 0.76 1.31 1.19 1.52 1.20 1.45 2.02 1.77 1.46 1.12 0.99 0.93 0.80 0.80 0.66 0.70 0.80
0.33 1.13 2.14 1.71 1.21 0.55 0.11 0.02 0.01 0.06 0.11 0.05 0.04 0.01 0.03 0.08 0.21 0.27 0.14 0.79 0.68 0.37 0.49 0.49 0.64 0.75 0.59 0.66 0.94 0.98 1.14 1.33 1.68 2.14 2.15 1.91 1.58 1.52 1.62 1.68 1.45 1.24 1.21 1.21
0.22 0.79 2.36 2.39 1.86 0.73 0.11 0.02 0.01 0.06 0.16 0.02 0.04 0.03 0.02 0.02 0.06 0.10 0.33 0.44 0.40 0.49 0.51 0.70 0.91 0.92 0.71 0.68 0.87 1.36 1.90 1.74 1.70 1.62 1.68 1.66 1.56 1.31 1.29 1.21 1.35 1.28 1.15 1.13
0.30 0.71 1.66 1.56 2.26 1.14 0.22 0.03 0.03 0.22 0.18 0.01 0.02 0.05 0.02 0.03 0.03 0.05 0.28 0.32 0.25 0.32 0.43 0.47 0.66 0.76 0.72 0.82 1.34 1.65 1.77 1.77 1.73 1.73 1.57 1.42 1.25 1.34 1.21 1.16 1.01 1.02 0.90 0.76
0.14 0.29 0.46 0.73 1.32 0.71 0.11 0.04 0.10 0.13 0.04 0.01 0.00 0.04 0.04 0.00 0.00 0.01 0.13 0.27 0.22 0.24 0.30 0.20 0.47 0.98 1.20 1.10 1.17 1.10 1.09 1.08 0.91 0.96 0.85 0.91 0.81 0.80 0.84 0.65 0.70 0.68 0.59 0.52
0.09 0.11 0.16 0.19 0.17 0.06 0.05 0.05 0.02 0.01 0.02 0.00 0.01 0.01 0.02 0.02 0.06 0.06 0.05 0.06 0.05 0.10 0.22 0.10 0.17 0.22 0.36 0.43 0.42 0.50 0.55 0.54 0.56 0.56 0.53 0.60 0.57 0.48 0.44 0.39 0.37 0.38 0.33 0.30
0.06 0.03 0.15 0.18 0.08 0.01 0.01 0.01 0.01 0.01 0.03 0.02 0.06 0.06 0.02 0.01 0.00 0.01 0.02 0.03 0.05 0.06 0.06 0.08 0.11 0.16 0.25 0.29 0.33 0.31 0.21 0.27 0.39 0.55 0.56 0.59 0.48 0.50 0.42 0.38 0.38 0.42 0.48 0.51
0.07 0.02 0.03 0.06 0.01 0.00 0.00 0.00 0.00 0.00 0.00 0.00 0.01 0.01 0.00 0.00 0.01 0.01 0.01 0.02 0.06 0.09 0.08 0.12 0.19 0.22 0.22 0.22 0.32 0.36 0.30 0.30 0.37 0.41 0.42 0.39 0.30 0.35 0.37 0.44 0.48 0.45 0.37 0.45
0.01 0.01 0.01 0.04 0.00 0.01 0.00 0.00 0.00 0.00 0.00 0.00 0.00 0.00 0.00 0.00 0.00 0.00 0.00 0.01 0.04 0.14 0.08 0.06 0.13 0.23 0.34 0.41 0.44 0.43 0.39 0.37 0.35 0.32 0.28 0.34 0.28 0.27 0.26 0.25 0.40 0.63 0.58 0.57

GFSCGP_prec_precacc_288.txt.gz
Total_Precipitation_Accumulation
3.54 2.47 1.00 0.73 0.74 0.49 0.55 0.44 0.65 0.56 0.55 0.64 0.95 0.67 0.24 0.16 0.20 0.18 0.07 0.06 0.23 0.51 1.01 1.24 0.89 0.81 0.91 0.85 0.88 0.71 0.61 0.72 0.95 1.11 0.99 0.99 1.26 1.72 1.88 1.43 1.19 1.13 1.06 1.07
2.64 1.35 0.41 0.67 0.92 0.49 0.43 0.40 0.76 0.87 0.71 0.75 0.65 0.86 0.43 0.18 0.16 0.15 0.17 0.13 0.22 0.47 0.89 1.29 1.70 0.90 0.88 1.50 1.77 1.37 1.11 1.01 0.94 1.07 1.00 0.90 1.00 1.20 1.63 1.90 1.50 1.43 1.38 1.29
1.55 0.74 0.58 0.81 1.40 0.68 0.36 0.19 0.45 1.27 0.95 0.66 0.52 0.60 0.70 0.27 0.15 0.14 0.18 0.23 0.35 0.56 0.60 1.05 1.84 1.39 1.25 1.72 1.87 1.62 1.51 1.54 1.46 1.48 1.88 1.58 1.60 1.48 1.70 2.11 1.91 1.78 1.54 1.46
1.89 0.66 0.56 0.88 1.57 0.88 0.65 0.15 0.48 0.87 0.86 0.71 0.40 0.60 0.44 0.32 0.22 0.16 0.25 0.28 0.31 0.43 0.38 0.60 0.95 1.32 1.45 1.02 1.03 1.53 2.55 2.98 2.12 1.91 2.77 3.41 3.11 2.94 2.71 2.93 2.66 2.11 1.84 1.72
1.69 0.91 0.76 0.94 0.95 0.75 0.67 0.33 0.80 0.94 0.75 0.79 0.42 0.78 0.23 0.27 0.24 0.29 0.28 0.17 0.16 0.17 0.34 0.35 0.56 0.83 0.79 0.73 0.77 0.94 1.48 2.35 2.43 2.47 2.68 3.18 3.05 2.43 2.15 2.20 2.78 2.81 2.55 2.09
0.92 0.93 0.93 0.78 0.52 0.27 0.24 0.29 0.76 1.25 1.07 1.13 0.31 0.38 0.23 0.23 0.20 0.40 0.32 0.15 0.27 0.23 0.16 0.32 0.31 0.46 0.55 0.66 0.78 0.69 1.00 1.46 2.17 2.43 2.43 2.64 2.88 3.15 2.70 2.20 2.40 2.27 1.90 1.85
1.50 1.24 0.90 0.77 0.36 0.24 0.29 0.74 1.61 1.72 1.56 0.79 0.23 0.16 0.15 0.11 0.10 0.26 0.38 0.25 0.36 0.49 0.30 0.37 0.59 0.56 0.66 0.78 0.60 0.61 0.89 1.03 1.50 1.69 2.08 2.20 1.79 2.04 2.13 1.98 1.93 2.04 2.00 1.76
1.60 2.00 1.15 0.63 0.28 0.34 0.35 0.69 1.41 1.50 0.59 0.50 0.20 0.26 0.19 0.21 0.19 0.19 0.35 0.47 0.72 0.98 0.55 0.51 0.81 1.02 1.05 0.88 0.85 0.56 0.82 0.91 0.90 0.91 0.97 1.35 1.58 1.95 1.88 1.68 1.58 1.55 1.45 1.56
0.68 1.18 0.58 0.28 0.08 0.16 0.34 0.54 0.47 0.82 0.32 0.50 0.38 0.31 0.39 0.41 0.39 0.28 0.38 0.71 0.96 1.05 0.91 0.79 0.86 1.20 1.12 0.89 0.99 0.92 0.88 0.98 0.81 0.84 0.54 0.48 0.57 0.70 0.85 0.90 0.91 1.02 1.29 1.22
0.17 0.62 0.30 0.16 0.13 0.07 0.08 0.15 0.45 0.76 0.92 0.60 0.31 0.28 0.69 0.68 0.62 0.63 0.67 0.88 1.00 0.91 1.11 0.97 0.90 0.92 0.86 0.72 0.88 0.94 0.81 0.61 0.57 0.66 0.59 0.25 0.28 0.32 0.39 0.31 0.28 0.30 0.45 0.61
0.01 0.21 0.30 0.23 0.26 0.10 0.04 0.15 0.25 0.50 0.69 1.07 0.40 0.25 0.40 0.51 0.55 0.71 0.59 0.76 0.80 0.88 0.84 0.76 0.69 0.63 0.58 0.42 0.60 0.85 0.73 0.61 0.51 0.56 0.72 0.45 0.34 0.32 0.34 0.28 0.13 0.14 0.13 0.16
0.00 0.06 0.12 0.14 0.03 0.01 0.02 0.01 0.08 0.61 0.47 0.62 0.54 0.27 0.05 0.17 0.41 0.35 0.41 0.45 0.43 0.51 0.56 0.54 0.56 0.53 0.34 0.47 0.71 1.23 1.11 0.76 0.50 0.51 0.58 0.73 0.57 0.47 0.41 0.39 0.21 0.17 0.19 0.20
0.00 0.11 0.20 0.21 0.16 0.06 0.06 0.02 0.11 0.27 0.59 0.42 0.54 0.12 0.01 0.13 0.25 0.16 0.26 0.41 0.22 0.14 0.23 0.31 0.45 0.76 0.26 0.49 0.80 1.23 1.16 0.77 0.53 0.58 0.54 0.71 0.94 0.77 0.66 0.48 0.39 0.27 0.30 0.39
0.05 0.32 0.19 0.14 0.11 0.20 0.18 0.03 0.10 0.44 0.69 0.17 0.09 0.01 0.00 0.09 0.10 0.10 0.30 0.47 0.16 0.16 0.24 0.27 0.17 0.17 0.29 0.79 0.95 0.96 1.27 1.09 0.86 0.75 0.70 0.65 0.98 0.95 0.86 0.69 0.66 0.55 0.48 0.48
0.32 0.77 0.30 0.08 0.06 0.22 0.20 0.08 0.08 0.37 0.21 0.38 0.10 0.01 0.01 0.03 0.17 0.32 0.67 0.63 0.19 0.19 0.15 0.14 0.14 0.22 0.31 1.05 0.98 1.23 1.26 1.55 1.35 1.03 0.97 0.89 0.68 0.92 0.82 0.67 0.87 0.78 0.62 0.68
0.70 1.14 0.66 0.44 0.11 0.15 0.25 0.06 0.07 0.10 0.04 0.08 0.05 0.06 0.03 0.03 0.32 0.25 0.68 0.75 0.34 0.22 0.13 0.10 0.17 0.24 0.33 0.75 0.96 0.98 1.47 1.91 1.70 1.44 1.16 1.04 0.67 0.78 0.92 0.87 0.87 0.78 0.72 0.87
1.18 1.36 1.49 0.99 0.26 0.47 0.53 0.09 0.03 0.03 0.06 0.12 0.35 0.48 0.19 0.21 0.63 0.35 0.50 0.56 0.39 0.27 0.14 0.13 0.21 0.60 0.36 0.58 0.91 1.14 1.44 1.56 1.74 1.99 1.60 1.15 0.70 0.71 0.67 0.57 0.59 0.54 0.59 0.75
0.81 1.01 1.85 1.35 0.74 1.22 0.27 0.02 0.00 0.03 0.07 0.07 0.11 0.06 0.05 0.24 0.84 0.33 0.28 0.73 0.53 0.19 0.15 0.40 0.59 0.60 0.40 0.76 1.31 1.19 1.52 1.20 1.45 2.02 1.77 1.46 1.12 0.99 0.93 0.80 0.80 0.66 0.70 0.80
0.33 1.13 2.14 1.71 1.21 0.55 0.11 0.02 0.01 0.06 0.11 0.05 0.04 0.01 0.03 0.08 0.21 0.27 0.14 0.79 0.68 0.37 0.49 0.49 0.64 0.75 0.59 0.66 0.94 0.98 1.14 1.33 1.68 2.14 2.15 1.91 1.58 1.52 1.62 1.68 1.45 1.24 1.21 1.21
0.22 0.79 2.36 2.42 1.88 0.74 0.11 0.02 0.01 0.06 0.16 0.02 0.04 0.03 0.02 0.02 0.06 0.10 0.33 0.44 0.40 0.49 0.51 0.70 0.91 0.92 0.71 0.68 0.87 1.36 1.90 1.74 1.70 1.62 1.68 1.66 1.56 1.31 1.29 1.21 1.35 1.28 1.15 1.13
0.31 0.72 1.68 1.61 2.29 1.14 0.22 0.03 0.03 0.22 0.18 0.01 0.02 0.05 0.02 0.03 0.03 0.05 0.28 0.32 0.25 0.32 0.43 0.47 0.66 0.76 0.72 0.82 1.34 1.65 1.77 1.77 1.73 1.73 1.57 1.42 1.25 1.34 1.21 1.16 1.01 1.02 0.90 0.76
0.16 0.31 0.49 0.79 1.39 0.72 0.11 0.04 0.10 0.13 0.04 0.01 0.00 0.04 0.04 0.00 0.00 0.01 0.13 0.27 0.22 0.24 0.30 0.20 0.47 0.98 1.20 1.10 1.17 1.10 1.09 1.08 0.91 0.96 0.85 0.91 0.81 0.80 0.84 0.65 0.70 0.68 0.59 0.52
0.10 0.13 0.18 0.21 0.19 0.06 0.05 0.05 0.02 0.01 0.02 0.00 0.01 0.01 0.02 0.02 0.06 0.06 0.05 0.06 0.05 0.10 0.22 0.10 0.17 0.22 0.36 0.43 0.42 0.50 0.55 0.54 0.56 0.56 0.53 0.60 0.57 0.48 0.44 0.39 0.37 0.38 0.33 0.30
0.06 0.03 0.16 0.21 0.12 0.02 0.02 0.02 0.01 0.01 0.03 0.02 0.06 0.06 0.02 0.01 0.00 0.01 0.02 0.03 0.05 0.06 0.06 0.08 0.11 0.16 0.25 0.29 0.33 0.31 0.21 0.27 0.39 0.55 0.56 0.59 0.48 0.50 0.42 0.38 0.38 0.42 0.49 0.51
0.08 0.03 0.04 0.09 0.07 0.02 0.01 0.00 0.00 0.00 0.00 0.00 0.01 0.01 0.00 0.00 0.01 0.01 0.01 0.02 0.06 0.09 0.08 0.12 0.19 0.22 0.22 0.22 0.32 0.36 0.30 0.30 0.37 0.41 0.42 0.39 0.30 0.35 0.37 0.44 0.48 0.45 0.37 0.45
0.07 0.05 0.03 0.05 0.01 0.01 0.01 0.00 0.00 0.00 0.00 0.00 0.00 0.00 0.00 0.00 0.00 0.00 0.00 0.01 0.04 0.14 0.08 0.06 0.13 0.23 0.34 0.41 0.44 0.43 0.39 0.37 0.35 0.32 0.28 0.34 0.28 0.27 0.26 0.25 0.40 0.63 0.58 0.57

GFSCGP_prec_precacc_291.txt.gz
Total_Precipitation_Accumulation
3.54 2.47 1.00 0.73 0.74 0.49 0.55 0.44 0.65 0.56 0.55 0.64 0.95 0.67 0.24 0.16 0.20 0.18 0.07 0.06 0.23 0.51 1.01 1.24 0.89 0.81 0.91 0.85 0.88 0.71 0.61 0.72 0.95 1.11 0.99 0.99 1.26 1.72 1.88 1.43 1.19 1.13 1.06 1.07
2.64 1.35 0.41 0.67 0.92 0.49 0.43 0.40 0.76 0.87 0.71 0.75 0.65 0.86 0.43 0.18 0.16 0.15 0.17 0.13 0.22 0.47 0.89 1.29 1.70 0.90 0.88 1.50 1.77 1.37 1.11 1.01 0.94 1.07 1.00 0.90 1.00 1.20 1.63 1.90 1.50 1.43 1.38 1.29
1.55 0.74 0.58 0.81 1.40 0.68 0.36 0.19 0.45 1.27 0.95 0.66 0.52 0.60 0.70 0.27 0.15 0.14 0.18 0.23 0.35 0.56 0.60 1.05 1.84 1.39 1.25 1.72 1.87 1.62 1.51 1.54 1.46 1.48 1.88 1.58 1.60 1.48 1.70 2.11 1.91 1.78 1.54 1.46
1.89 0.66 0.56 0.88 1.57 0.88 0.65 0.15 0.48 0.87 0.86 0.71 0.40 0.60 0.44 0.32 0.22 0.16 0.25 0.28 0.31 0.43 0.38 0.60 0.95 1.32 1.45 1.02 1.03 1.53 2.55 2.98 2.12 1.91 2.77 3.41 3.11 2.94 2.71 2.93 2.66 2.11 1.84 1.72
1.69 0.91 0.76 0.94 0.95 0.75 0.67 0.33 0.80 0.94 0.75 0.79 0.42 0.78 0.23 0.27 0.24 0.29 0.28 0.17 0.16 0.17 0.34 0.35 0.56 0.83 0.79 0.73 0.77 0.94 1.48 2.35 2.43 2.47 2.68 3.18 3.05 2.43 2.15 2.20 2.78 2.81 2.55 2.09
0.92 0.93 0.93 0.78 0.52 0.27 0.24 0.29 0.76 1.25 1.07 1.13 0.31 0.38 0.23 0.23 0.20 0.40 0.32 0.15 0.27 0.23 0.16 0.32 0.31 0.46 0.55 0.66 0.78 0.69 1.00 1.46 2.17 2.43 2.43 2.64 2.88 3.15 2.70 2.20 2.40 2.27 1.90 1.85
1.50 1.24 0.90 0.77 0.36 0.24 0.29 0.74 1.61 1.72 1.56 0.79 0.23 0.16 0.15 0.11 0.10 0.26 0.38 0.25 0.36 0.49 0.30 0.37 0.59 0.56 0.66 0.78 0.60 0.61 0.89 1.03 1.50 1.69 2.08 2.20 1.79 2.04 2.14 1.98 1.93 2.04 2.00 1.76
1.60 2.00 1.15 0.63 0.28 0.34 0.35 0.69 1.41 1.50 0.59 0.50 0.20 0.26 0.19 0.21 0.19 0.19 0.35 0.47 0.72 0.98 0.55 0.51 0.81 1.02 1.05 0.88 0.85 0.56 0.82 0.91 0.90 0.91 0.97 1.35 1.58 1.95 1.88 1.68 1.58 1.55 1.45 1.56
0.68 1.18 0.58 0.28 0.08 0.16 0.34 0.54 0.47 0.82 0.32 0.50 0.38 0.31 0.39 0.41 0.39 0.28 0.38 0.71 0.96 1.05 0.91 0.79 0.86 1.20 1.12 0.89 0.99 0.92 0.88 0.98 0.81 0.84 0.54 0.48 0.57 0.70 0.85 0.90 0.91 1.02 1.29 1.22
0.17 0.62 0.30 0.16 0.13 0.07 0.08 0.15 0.45 0.76 0.92 0.60 0.31 0.28 0.69 0.68 0.62 0.63 0.67 0.88 1.00 0.91 1.11 0.97 0.90 0.92 0.86 0.72 0.88 0.94 0.81 0.61 0.57 0.66 0.59 0.25 0.28 0.32 0.39 0.31 0.28 0.30 0.45 0.61
0.01 0.21 0.30 0.23 0.26 0.10 0.04 0.15 0.25 0.50 0.69 1.07 0.40 0.25 0.40 0.51 0.55 0.71 0.59 0.76 0.80 0.88 0.84 0.76 0.69 0.63 0.58 0.42 0.60 0.85 0.73 0.61 0.51 0.56 0.72 0.45 0.34 0.32 0.34 0.28 0.13 0.14 0.13 0.16
0.00 0.06 0.12 0.14 0.03 0.01 0.02 0.01 0.08 0.61 0.47 0.62 0.54 0.27 0.05 0.17 0.41 0.35 0.41 0.45 0.43 0.51 0.56 0.54 0.56 0.53 0.34 0.47 0.71 1.23 1.11 0.76 0.50 0.51 0.58 0.73 0.57 0.47 0.41 0.39 0.21 0.17 0.19 0.20
0.00 0.11 0.20 0.21 0.16 0.06 0.06 0.02 0.11 0.27 0.59 0.42 0.54 0.12 0.01 0.13 0.25 0.16 0.26 0.41 0.22 0.14 0.23 0.31 0.45 0.76 0.26 0.49 0.80 1.23 1.16 0.77 0.53 0.58 0.54 0.71 0.94 0.77 0.66 0.48 0.39 0.27 0.30 0.39
0.05 0.32 0.19 0.14 0.11 0.20 0.18 0.03 0.10 0.44 0.69 0.17 0.09 0.01 0.00 0.09 0.10 0.10 0.30 0.47 0.16 0.16 0.24 0.27 0.17 0.17 0.29 0.79 0.95 0.96 1.27 1.09 0.86 0.75 0.70 0.65 0.98 0.95 0.86 0.69 0.66 0.55 0.48 0.48
0.32 0.77 0.30 0.08 0.06 0.22 0.20 0.08 0.08 0.37 0.21 0.38 0.10 0.01 0.01 0.03 0.17 0.32 0.67 0.63 0.19 0.19 0.15 0.14 0.14 0.22 0.31 1.05 0.98 1.23 1.26 1.55 1.35 1.03 0.97 0.89 0.68 0.92 0.82 0.67 0.87 0.78 0.62 0.68
0.70 1.14 0.66 0.44 0.11 0.15 0.25 0.06 0.07 0.10 0.04 0.08 0.05 0.06 0.03 0.03 0.32 0.25 0.68 0.75 0.34 0.22 0.13 0.10 0.17 0.24 0.33 0.75 0.96 0.98 1.47 1.91 1.70 1.44 1.16 1.04 0.67 0.78 0.92 0.87 0.87 0.78 0.72 0.87
1.18 1.37 1.49 0.99 0.26 0.47 0.53 0.09 0.03 0.03 0.06 0.12 0.35 0.48 0.19 0.21 0.63 0.35 0.50 0.56 0.39 0.27 0.14 0.13 0.21 0.60 0.36 0.58 0.91 1.14 1.44 1.56 1.74 1.99 1.60 1.15 0.70 0.71 0.67 0.57 0.59 0.54 0.59 0.75
0.82 1.02 1.85 1.35 0.74 1.22 0.27 0.02 0.00 0.03 0.07 0.07 0.11 0.06 0.05 0.24 0.84 0.33 0.28 0.73 0.53 0.19 0.15 0.40 0.59 0.60 0.40 0.76 1.31 1.19 1.52 1.20 1.45 2.02 1.77 1.46 1.12 0.99 0.93 0.80 0.80 0.66 0.70 0.80
0.33 1.13 2.14 1.71 1.21 0.55 0.11 0.02 0.01 0.06 0.11 0.05 0.04 0.01 0.03 0.08 0.21 0.27 0.14 0.79 0.68 0.37 0.49 0.49 0.64 0.75 0.59 0.66 0.94 0.98 1.14 1.33 1.68 2.14 2.15 1.91 1.58 1.52 1.62 1.68 1.45 1.24 1.21 1.21
0.22 0.79 2.36 2.42 1.88 0.74 0.11 0.02 0.01 0.06 0.16 0.02 0.04 0.03 0.02 0.02 0.06 0.10 0.33 0.44 0.40 0.49 0.51 0.70 0.91 0.92 0.71 0.68 0.87 1.36 1.90 1.74 1.70 1.62 1.68 1.66 1.56 1.31 1.29 1.21 1.35 1.28 1.15 1.13
0.31 0.73 1.68 1.63 2.30 1.15 0.22 0.03 0.03 0.22 0.18 0.01 0.02 0.05 0.02 0.03 0.03 0.05 0.28 0.32 0.25 0.32 0.43 0.47 0.66 0.76 0.72 0.82 1.34 1.65 1.77 1.77 1.73 1.73 1.57 1.42 1.25 1.34 1.21 1.16 1.01 1.02 0.90 0.76
0.16 0.31 0.49 0.81 1.46 0.73 0.11 0.04 0.10 0.13 0.04 0.01 0.00 0.04 0.04 0.00 0.00 0.01 0.13 0.27 0.22 0.24 0.30 0.20 0.47 0.98 1.20 1.10 1.17 1.10 1.09 1.08 0.91 0.96 0.85 0.91 0.81 0.80 0.84 0.65 0.70 0.68 0.59 0.52
0.10 0.13 0.18 0.22 0.20 0.06 0.05 0.05 0.02 0.01 0.02 0.00 0.01 0.01 0.02 0.02 0.06 0.06 0.06 0.06 0.05 0.10 0.22 0.10 0.17 0.22 0.36 0.43 0.42 0.50 0.55 0.54 0.56 0.56 0.53 0.60 0.57 0.48 0.44 0.39 0.37 0.38 0.33 0.30
0.06 0.03 0.19 0.26 0.16 0.03 0.02 0.02 0.01 0.01 0.03 0.02 0.06 0.06 0.02 0.01 0.00 0.01 0.02 0.03 0.05 0.06 0.06 0.08 0.11 0.16 0.25 0.29 0.33 0.31 0.21 0.27 0.39 0.55 0.56 0.59 0.48 0.50 0.42 0.38 0.38 0.42 0.49 0.51
0.09 0.04 0.05 0.13 0.13 0.06 0.03 0.00 0.00 0.00 0.00 0.00 0.01 0.01 0.00 0.00 0.01 0.01 0.01 0.02 0.06 0.09 0.08 0.12 0.19 0.22 0.22 0.22 0.32 0.36 0.30 0.30 0.37 0.41 0.42 0.39 0.30 0.35 0.37 0.44 0.48 0.45 0.37 0.45
0.11 0.08 0.05 0.07 0.02 0.02 0.02 0.00 0.00 0.00 0.00 0.00 0.00 0.00 0.00 0.00 0.00 0.00 0.00 0.01 0.04 0.14 0.08 0.06 0.13 0.23 0.34 0.41 0.44 0.43 0.39 0.37 0.35 0.32 0.28 0.34 0.28 0.27 0.26 0.25 0.40 0.63 0.58 0.57

GFSCGP_prec_precacc_294.txt.gz
Total_Precipitation_Accumulation
3.54 2.47 1.00 0.73 0.74 0.49 0.55 0.44 0.65 0.56 0.55 0.64 0.95 0.67 0.24 0.16 0.20 0.18 0.07 0.06 0.23 0.51 1.01 1.24 0.89 0.81 0.91 0.85 0.88 0.71 0.61 0.72 0.95 1.11 0.99 0.99 1.26 1.72 1.88 1.43 1.19 1.13 1.06 1.07
2.64 1.35 0.41 0.67 0.92 0.49 0.43 0.40 0.76 0.87 0.71 0.75 0.65 0.86 0.43 0.18 0.16 0.15 0.17 0.13 0.22 0.47 0.89 1.29 1.70 0.90 0.88 1.50 1.77 1.37 1.11 1.01 0.94 1.07 1.00 0.90 1.00 1.20 1.63 1.90 1.50 1.43 1.38 1.29
1.55 0.74 0.58 0.81 1.40 0.68 0.36 0.19 0.45 1.27 0.95 0.66 0.52 0.60 0.70 0.27 0.15 0.14 0.18 0.23 0.35 0.56 0.60 1.05 1.84 1.39 1.25 1.72 1.87 1.62 1.51 1.54 1.46 1.48 1.88 1.58 1.60 1.48 1.70 2.11 1.91 1.78 1.54 1.46
1.89 0.66 0.56 0.88 1.57 0.88 0.65 0.15 0.48 0.87 0.86 0.71 0.40 0.60 0.44 0.32 0.22 0.16 0.25 0.28 0.31 0.43 0.38 0.60 0.95 1.32 1.45 1.02 1.03 1.53 2.55 2.98 2.12 1.91 2.77 3.41 3.11 2.94 2.71 2.93 2.66 2.11 1.84 1.72
1.69 0.91 0.76 0.94 0.95 0.75 0.67 0.33 0.80 0.94 0.75 0.79 0.42 0.78 0.23 0.27 0.24 0.29 0.28 0.17 0.16 0.17 0.34 0.35 0.56 0.83 0.79 0.73 0.77 0.94 1.48 2.35 2.43 2.47 2.68 3.18 3.05 2.43 2.15 2.20 2.78 2.81 2.55 2.09
0.92 0.93 0.93 0.78 0.52 0.27 0.24 0.29 0.76 1.25 1.07 1.13 0.31 0.38 0.23 0.23 0.20 0.40 0.32 0.15 0.27 0.23 0.16 0.32 0.31 0.46 0.55 0.67 0.78 0.70 1.00 1.46 2.17 2.43 2.43 2.64 2.88 3.15 2.70 2.20 2.40 2.27 1.90 1.85
1.50 1.24 0.90 0.77 0.36 0.24 0.29 0.74 1.61 1.72 1.56 0.79 0.23 0.16 0.15 0.11 0.10 0.26 0.38 0.25 0.36 0.49 0.30 0.37 0.59 0.56 0.66 0.78 0.60 0.61 0.90 1.03 1.50 1.69 2.08 2.20 1.79 2.04 2.14 1.98 1.93 2.04 2.00 1.76
1.60 2.00 1.15 0.63 0.28 0.34 0.35 0.69 1.41 1.50 0.59 0.50 0.20 0.26 0.19 0.21 0.19 0.19 0.35 0.47 0.72 0.98 0.55 0.51 0.81 1.02 1.05 0.88 0.85 0.56 0.82 0.91 0.90 0.91 0.97 1.35 1.58 1.95 1.88 1.68 1.58 1.55 1.45 1.56
0.68 1.18 0.58 0.28 0.08 0.16 0.34 0.54 0.47 0.82 0.32 0.50 0.38 0.31 0.39 0.41 0.39 0.28 0.38 0.71 0.96 1.05 0.91 0.79 0.86 1.20 1.12 0.89 0.99 0.92 0.88 0.98 0.81 0.84 0.54 0.48 0.57 0.70 0.85 0.90 0.91 1.02 1.29 1.22
0.17 0.62 0.30 0.16 0.13 0.07 0.08 0.15 0.45 0.76 0.92 0.60 0.31 0.28 0.69 0.68 0.62 0.63 0.67 0.88 1.00 0.91 1.11 0.97 0.90 0.92 0.86 0.72 0.88 0.94 0.81 0.61 0.57 0.66 0.59 0.25 0.28 0.32 0.39 0.31 0.28 0.30 0.45 0.61
0.01 0.21 0.30 0.23 0.26 0.10 0.04 0.15 0.25 0.50 0.69 1.07 0.40 0.25 0.40 0.51 0.55 0.71 0.59 0.76 0.80 0.88 0.84 0.76 0.69 0.63 0.58 0.42 0.60 0.85 0.73 0.61 0.51 0.56 0.72 0.45 0.34 0.32 0.34 0.28 0.13 0.14 0.13 0.16
0.00 0.06 0.12 0.14 0.03 0.01 0.02 0.01 0.08 0.61 0.47 0.62 0.54 0.27 0.05 0.17 0.41 0.35 0.41 0.45 0.43 0.51 0.56 0.54 0.56 0.53 0.34 0.47 0.71 1.23 1.11 0.76 0.50 0.51 0.58 0.73 0.57 0.47 0.41 0.39 0.21 0.17 0.19 0.20
0.00 0.11 0.20 0.21 0.16 0.06 0.06 0.02 0.11 0.27 0.59 0.42 0.54 0.12 0.01 0.13 0.25 0.16 0.26 0.41 0.22 0.14 0.23 0.31 0.45 0.76 0.26 0.49 0.80 1.23 1.16 0.77 0.53 0.58 0.54 0.71 0.94 0.77 0.66 0.48 0.39 0.27 0.30 0.39
0.05 0.32 0.19 0.14 0.11 0.20 0.18 0.03 0.10 0.44 0.69 0.17 0.09 0.01 0.00 0.09 0.10 0.10 0.30 0.47 0.16 0.16 0.24 0.27 0.17 0.17 0.29 0.79 0.95 0.96 1.27 1.09 0.86 0.75 0.70 0.65 0.98 0.95 0.86 0.69 0.66 0.55 0.48 0.48
0.32 0.77 0.30 0.08 0.06 0.22 0.20 0.08 0.08 0.37 0.21 0.38 0.10 0.01 0.01 0.03 0.17 0.32 0.67 0.63 0.19 0.19 0.15 0.14 0.14 0.22 0.31 1.05 0.98 1.23 1.26 1.55 1.35 1.03 0.97 0.89 0.68 0.92 0.82 0.67 0.87 0.78 0.62 0.68
0.70 1.14 0.66 0.44 0.11 0.15 0.25 0.06 0.07 0.10 0.04 0.08 0.05 0.06 0.03 0.03 0.32 0.25 0.68 0.75 0.34 0.22 0.13 0.10 0.17 0.24 0.33 0.75 0.96 0.98 1.47 1.91 1.70 1.44 1.16 1.04 0.67 0.78 0.92 0.87 0.87 0.78 0.72 0.87
1.18 1.37 1.49 0.99 0.26 0.47 0.53 0.09 0.03 0.03 0.06 0.12 0.35 0.48 0.19 0.21 0.63 0.35 0.50 0.56 0.39 0.27 0.14 0.13 0.21 0.60 0.36 0.58 0.91 1.14 1.44 1.56 1.74 1.99 1.60 1.15 0.70 0.71 0.67 0.57 0.59 0.54 0.59 0.75
0.82 1.02 1.85 1.36 0.74 1.22 0.27 0.02 0.00 0.03 0.07 0.07 0.11 0.06 0.05 0.24 0.84 0.33 0.28 0.73 0.53 0.19 0.15 0.40 0.59 0.60 0.40 0.76 1.31 1.19 1.52 1.20 1.45 2.02 1.77 1.46 1.12 0.99 0.93 0.80 0.80 0.66 0.70 0.80
0.33 1.14 2.14 1.71 1.21 0.55 0.11 0.02 0.01 0.06 0.11 0.05 0.04 0.01 0.03 0.08 0.21 0.27 0.14 0.79 0.68 0.37 0.49 0.49 0.64 0.75 0.59 0.66 0.94 0.98 1.14 1.33 1.68 2.14 2.15 1.91 1.58 1.52 1.62 1.68 1.45 1.24 1.21 1.21
0.22 0.79 2.36 2.42 1.88 0.74 0.11 0.02 0.01 0.06 0.16 0.02 0.04 0.03 0.02 0.02 0.06 0.10 0.33 0.44 0.40 0.49 0.51 0.70 0.91 0.92 0.71 0.68 0.87 1.36 1.90 1.74 1.70 1.62 1.68 1.66 1.56 1.31 1.29 1.21 1.35 1.28 1.15 1.13
0.31 0.73 1.68 1.63 2.30 1.15 0.22 0.03 0.03 0.22 0.18 0.01 0.02 0.05 0.02 0.03 0.03 0.05 0.28 0.32 0.25 0.32 0.43 0.47 0.66 0.76 0.72 0.82 1.34 1.65 1.77 1.77 1.73 1.73 1.57 1.42 1.25 1.34 1.21 1.16 1.01 1.02 0.90 0.76
0.16 0.31 0.49 0.82 1.46 0.73 0.11 0.04 0.10 0.13 0.04 0.01 0.00 0.04 0.04 0.00 0.00 0.01 0.13 0.27 0.22 0.24 0.30 0.20 0.47 0.98 1.20 1.10 1.17 1.10 1.09 1.08 0.91 0.96 0.85 0.91 0.81 0.80 0.84 0.65 0.70 0.68 0.59 0.52
0.10 0.13 0.18 0.22 0.20 0.06 0.05 0.05 0.02 0.01 0.02 0.00 0.01 0.01 0.02 0.02 0.06 0.06 0.06 0.06 0.05 0.10 0.22 0.10 0.17 0.23 0.36 0.43 0.42 0.50 0.55 0.54 0.56 0.56 0.53 0.60 0.57 0.48 0.44 0.39 0.37 0.38 0.33 0.30
0.06 0.03 0.19 0.26 0.16 0.03 0.02 0.02 0.01 0.01 0.03 0.02 0.06 0.06 0.02 0.01 0.00 0.01 0.03 0.04 0.05 0.06 0.07 0.08 0.12 0.16 0.25 0.29 0.33 0.31 0.21 0.27 0.39 0.55 0.56 0.59 0.48 0.50 0.42 0.38 0.38 0.42 0.49 0.51
0.09 0.04 0.05 0.13 0.14 0.06 0.03 0.00 0.00 0.00 0.00 0.00 0.01 0.01 0.00 0.00 0.01 0.02 0.03 0.03 0.06 0.10 0.08 0.13 0.19 0.23 0.22 0.22 0.32 0.36 0.30 0.30 0.37 0.41 0.42 0.39 0.30 0.35 0.37 0.44 0.48 0.45 0.37 0.45
0.12 0.09 0.05 0.07 0.03 0.02 0.03 0.01 0.00 0.00 0.00 0.00 0.00 0.00 0.00 0.00 0.01 0.01 0.01 0.01 0.04 0.14 0.08 0.06 0.13 0.23 0.34 0.41 0.44 0.43 0.39 0.37 0.35 0.32 0.28 0.34 0.28 0.27 0.26 0.25 0.40 0.63 0.58 0.57

GFSCGP_prec_precacc_300.txt.gz
Total_Precipitation_Accumulation
3.54 2.47 1.00 0.73 0.74 0.49 0.55 0.44 0.65 0.56 0.55 0.64 0.95 0.67 0.24 0.16 0.20 0.18 0.07 0.06 0.23 0.51 1.01 1.24 0.89 0.81 0.91 0.85 0.88 0.71 0.61 0.72 0.95 1.11 0.99 0.99 1.26 1.72 1.88 1.43 1.19 1.13 1.08 1.08
2.64 1.35 0.41 0.67 0.92 0.49 0.43 0.40 0.76 0.87 0.71 0.75 0.65 0.86 0.43 0.18 0.16 0.15 0.17 0.13 0.22 0.47 0.89 1.29 1.70 0.90 0.88 1.50 1.77 1.37 1.11 1.01 0.94 1.07 1.00 0.90 1.00 1.20 1.63 1.90 1.50 1.43 1.39 1.29
1.55 0.74 0.58 0.81 1.40 0.68 0.36 0.19 0.45 1.27 0.95 0.66 0.52 0.60 0.70 0.27 0.15 0.14 0.18 0.23 0.35 0.56 0.60 1.05 1.84 1.39 1.25 1.72 1.87 1.62 1.51 1.54 1.46 1.48 1.89 1.58 1.60 1.48 1.70 2.11 1.91 1.78 1.54 1.46
1.89 0.66 0.56 0.88 1.57 0.88 0.65 0.15 0.48 0.87 0.86 0.71 0.40 0.60 0.44 0.32 0.22 0.16 0.25 0.28 0.31 0.43 0.38 0.60 0.95 1.32 1.45 1.02 1.03 1.53 2.55 2.98 2.12 1.91 2.78 3.41 3.12 2.95 2.71 2.93 2.66 2.11 1.84 1.72
1.69 0.91 0.76 0.94 0.95 0.75 0.67 0.33 0.80 0.94 0.75 0.79 0.42 0.78 0.23 0.27 0.24 0.29 0.28 0.17 0.16 0.17 0.34 0.35 0.56 0.83 0.79 0.73 0.77 0.94 1.48 2.35 2.44 2.47 2.68 3.18 3.06 2.44 2.15 2.20 2.78 2.81 2.55 2.09
0.92 0.93 0.93 0.78 0.52 0.27 0.24 0.29 0.76 1.25 1.07 1.13 0.31 0.38 0.23 0.23 0.20 0.40 0.32 0.15 0.27 0.23 0.16 0.32 0.31 0.46 0.55 0.67 0.78 0.70 1.00 1.46 2.17 2.44 2.43 2.64 2.88 3.15 2.70 2.20 2.40 2.27 1.90 1.85
1.50 1.24 0.90 0.77 0.36 0.24 0.29 0.74 1.61 1.72 1.56 0.79 0.23 0.16 0.15 0.11 0.10 0.26 0.38 0.25 0.36 0.49 0.30 0.37 0.59 0.56 0.66 0.78 0.60 0.62 0.90 1.04 1.51 1.69 2.09 2.20 1.79 2.04 2.14 1.98 1.93 2.04 2.00 1.76
1.60 2.00 1.15 0.63 0.28 0.34 0.35 0.69 1.41 1.50 0.59 0.50 0.20 0.26 0.19 0.21 0.19 0.19 0.35 0.47 0.72 0.98 0.55 0.51 0.81 1.02 1.05 0.88 0.85 0.57 0.83 0.93 0.91 0.92 0.98 1.36 1.58 1.95 1.88 1.68 1.58 1.55 1.45 1.56
0.68 1.18 0.58 0.28 0.08 0.16 0.34 0.54 0.47 0.82 0.32 0.50 0.38 0.31 0.39 0.41 0.39 0.28 0.38 0.71 0.96 1.05 0.91 0.79 0.86 1.20 1.12 0.89 0.99 0.92 0.88 0.99 0.81 0.84 0.54 0.48 0.57 0.70 0.85 0.90 0.91 1.02 1.29 1.22
0.17 0.62 0.30 0.16 0.13 0.07 0.08 0.15 0.45 0.76 0.92 0.60 0.31 0.28 0.69 0.68 0.62 0.63 0.67 0.88 1.00 0.91 1.11 0.97 0.90 0.92 0.86 0.72 0.88 0.94 0.81 0.61 0.57 0.67 0.59 0.25 0.28 0.32 0.39 0.31 0.28 0.30 0.45 0.61
0.01 0.21 0.30 0.23 0.26 0.10 0.04 0.15 0.25 0.50 0.69 1.07 0.40 0.25 0.40 0.51 0.55 0.71 0.59 0.76 0.80 0.88 0.84 0.76 0.69 0.63 0.58 0.42 0.60 0.85 0.73 0.61 0.51 0.56 0.72 0.45 0.34 0.32 0.34 0.28 0.13 0.14 0.13 0.16
0.00 0.06 0.12 0.14 0.03 0.01 0.02 0.01 0.08 0.61 0.47 0.62 0.54 0.27 0.05 0.17 0.41 0.35 0.41 0.45 0.43 0.51 0.56 0.54 0.56 0.53 0.34 0.47 0.71 1.23 1.11 0.76 0.50 0.51 0.58 0.73 0.57 0.47 0.41 0.39 0.21 0.17 0.19 0.20
0.00 0.11 0.20 0.21 0.16 0.06 0.06 0.02 0.11 0.27 0.59 0.42 0.54 0.12 0.01 0.13 0.25 0.16 0.26 0.41 0.22 0.14 0.23 0.31 0.45 0.76 0.26 0.49 0.80 1.23 1.16 0.77 0.53 0.58 0.54 0.71 0.94 0.77 0.66 0.48 0.39 0.27 0.30 0.39
0.05 0.32 0.19 0.14 0.11 0.20 0.18 0.03 0.10 0.44 0.69 0.17 0.09 0.01 0.00 0.09 0.10 0.10 0.30 0.47 0.16 0.16 0.24 0.27 0.17 0.17 0.29 0.79 0.95 0.96 1.27 1.09 0.86 0.75 0.70 0.65 0.98 0.95 0.86 0.69 0.66 0.55 0.48 0.48
0.32 0.77 0.30 0.08 0.06 0.22 0.20 0.08 0.08 0.37 0.21 0.38 0.10 0.01 0.01 0.03 0.17 0.32 0.67 0.63 0.19 0.19 0.15 0.14 0.14 0.22 0.31 1.05 0.98 1.23 1.26 1.55 1.35 1.03 0.97 0.89 0.68 0.92 0.82 0.67 0.87 0.78 0.62 0.68
0.70 1.14 0.66 0.44 0.11 0.15 0.25 0.06 0.07 0.10 0.04 0.08 0.05 0.06 0.03 0.03 0.32 0.25 0.68 0.75 0.34 0.22 0.13 0.10 0.17 0.24 0.33 0.75 0.96 0.98 1.47 1.91 1.70 1.44 1.16 1.04 0.67 0.78 0.92 0.87 0.87 0.78 0.72 0.87
1.18 1.37 1.49 0.99 0.26 0.47 0.53 0.09 0.03 0.03 0.06 0.12 0.35 0.48 0.19 0.21 0.63 0.35 0.50 0.56 0.39 0.27 0.14 0.13 0.21 0.60 0.36 0.58 0.91 1.14 1.44 1.56 1.74 1.99 1.60 1.15 0.70 0.71 0.67 0.57 0.59 0.54 0.59 0.75
0.83 1.02 1.85 1.36 0.74 1.22 0.27 0.02 0.00 0.03 0.07 0.07 0.11 0.06 0.05 0.24 0.84 0.33 0.28 0.73 0.53 0.19 0.15 0.40 0.59 0.60 0.40 0.76 1.31 1.19 1.52 1.20 1.45 2.02 1.77 1.46 1.12 0.99 0.93 0.80 0.80 0.66 0.70 0.80
0.35 1.15 2.15 1.71 1.21 0.55 0.11 0.02 0.01 0.06 0.11 0.05 0.04 0.01 0.03 0.08 0.21 0.27 0.14 0.79 0.68 0.37 0.49 0.49 0.64 0.75 0.59 0.66 0.94 0.98 1.14 1.33 1.68 2.14 2.15 1.91 1.58 1.52 1.62 1.68 1.45 1.24 1.21 1.21
0.23 0.81 2.39 2.45 1.94 0.76 0.11 0.02 0.01 0.06 0.16 0.02 0.04 0.03 0.02 0.02 0.06 0.10 0.33 0.44 0.40 0.49 0.51 0.70 0.91 0.92 0.71 0.68 0.87 1.36 1.90 1.74 1.70 1.62 1.68 1.66 1.56 1.31 1.29 1.21 1.35 1.28 1.15 1.13
0.33 0.81 1.85 1.73 2.38 1.17 0.22 0.03 0.03 0.22 0.18 0.01 0.02 0.05 0.02 0.03 0.03 0.05 0.28 0.32 0.25 0.32 0.43 0.47 0.66 0.76 0.72 0.82 1.34 1.65 1.77 1.77 1.73 1.73 1.57 1.42 1.25 1.34 1.21 1.16 1.01 1.02 0.90 0.76
0.16 0.33 0.57 0.92 1.54 0.75 0.11 0.04 0.10 0.13 0.04 0.01 0.00 0.04 0.04 0.00 0.00 0.01 0.13 0.27 0.22 0.24 0.30 0.20 0.47 0.98 1.20 1.10 1.17 1.10 1.09 1.08 0.91 0.96 0.85 0.91 0.81 0.80 0.84 0.65 0.70 0.68 0.59 0.52
0.10 0.13 0.18 0.23 0.22 0.06 0.05 0.05 0.02 0.01 0.02 0.00 0.01 0.01 0.02 0.02 0.06 0.06 0.06 0.06 0.05 0.10 0.22 0.10 0.17 0.23 0.36 0.43 0.43 0.51 0.57 0.56 0.57 0.57 0.54 0.60 0.57 0.48 0.44 0.39 0.37 0.38 0.33 0.30
0.06 0.03 0.19 0.26 0.16 0.03 0.02 0.02 0.01 0.01 0.03 0.02 0.06 0.06 0.02 0.01 0.00 0.01 0.03 0.04 0.05 0.06 0.07 0.08 0.12 0.16 0.26 0.31 0.35 0.34 0.23 0.29 0.40 0.55 0.56 0.59 0.48 0.50 0.42 0.38 0.38 0.42 0.49 0.51
0.09 0.04 0.05 0.13 0.14 0.06 0.03 0.00 0.00 0.00 0.00 0.00 0.01 0.01 0.00 0.00 0.01 0.02 0.03 0.03 0.07 0.10 0.08 0.14 0.20 0.24 0.24 0.24 0.34 0.37 0.31 0.30 0.37 0.41 0.42 0.39 0.30 0.35 0.37 0.44 0.48 0.45 0.37 0.45
0.16 0.12 0.07 0.08 0.03 0.02 0.03 0.01 0.00 0.00 0.00 0.00 0.00 0.00 0.00 0.00 0.01 0.02 0.03 0.04 0.06 0.16 0.10 0.08 0.16 0.26 0.36 0.42 0.45 0.43 0.39 0.37 0.35 0.32 0.28 0.34 0.28 0.27 0.26 0.25 0.40 0.63 0.58 0.57